When you browse on this site, cookies collect data to enhance your experience and personalize the content and advertising you see.
Visit our Privacy Policy to learn more. By continuing to use the site, you agree to this use of cookies and data.
  • In Switzerland
  • List of Countries
  • For 7 days
  • Water Temperature
  • Satellite Maps
  • Weather Map
  • Weather Widgets
  • user-avatar
    Login

    Hourly Weather Plavni

    Today, 22 July, Monday

    Time Temperature Precipitation Wind Pressure Humidity
    00:00 +23°C° 0 mm 2 mps 759 mmHg 56%
    01:00 +23°C° 0 mm 2 mps 759 mmHg 58%
    02:00 +21°C° 0 mm 2 mps 759 mmHg 61%
    03:00 +22°C° 0 mm 1 mps 759 mmHg 61%
    04:00 +22°C° 0 mm 1 mps 759 mmHg 62%
    05:00 +22°C° 0 mm 1 mps 759 mmHg 63%
    06:00 +24°C° 0 mm 1 mps 759 mmHg 57%
    07:00 +26°C° 0 mm 1 mps 759 mmHg 52%
    08:00 +28°C° 0 mm 1 mps 759 mmHg 46%
    09:00 +29°C° 0 mm 1 mps 759 mmHg 43%
    10:00 +30°C° 0 mm 1 mps 759 mmHg 39%
    11:00 +31°C° 0 mm 2 mps 759 mmHg 35%
    12:00 +32°C° 0 mm 2 mps 758 mmHg 35%
    13:00 +32°C° 0 mm 2 mps 758 mmHg 34%
    14:00 +34°C° 0 mm 2 mps 757 mmHg 33%
    15:00 +32°C° 0 mm 2 mps 757 mmHg 34%
    16:00 +32°C° 0 mm 2 mps 757 mmHg 35%
    17:00 +32°C° 0 mm 2 mps 757 mmHg 36%
    18:00 +30°C° 0 mm 2 mps 757 mmHg 40%
    19:00 +28°C° 0 mm 1 mps 757 mmHg 43%
    20:00 +27°C° 0 mm 1 mps 756 mmHg 47%
    21:00 +26°C° 0 mm 2 mps 756 mmHg 50%
    22:00 +25°C° 0 mm 2 mps 756 mmHg 54%
    23:00 +25°C° 0 mm 3 mps 756 mmHg 57%

    Tomorrow, 23 July, Tuesday

    Time Temperature Precipitation Wind Pressure Humidity
    00:00 +24°C° 0 mm 3 mps 756 mmHg 58%
    01:00 +24°C° 0 mm 3 mps 756 mmHg 60%
    02:00 +24°C° 0 mm 3 mps 756 mmHg 61%
    03:00 +24°C° 0 mm 3 mps 755 mmHg 63%
    04:00 +24°C° 0 mm 2 mps 755 mmHg 64%
    05:00 +24°C° 0 mm 2 mps 755 mmHg 66%
    06:00 +24°C° 0.1 mm 2 mps 755 mmHg 66%
    07:00 +25°C° 0.1 mm 2 mps 755 mmHg 66%
    08:00 +25°C° 0.1 mm 2 mps 754 mmHg 66%
    09:00 +26°C° 0.3 mm 2 mps 755 mmHg 65%
    10:00 +26°C° 0.3 mm 2 mps 755 mmHg 64%
    11:00 +27°C° 0.3 mm 2 mps 755 mmHg 64%
    12:00 +27°C° 1.3 mm 2 mps 754 mmHg 64%
    13:00 +27°C° 1.3 mm 3 mps 754 mmHg 63%
    14:00 +27°C° 1.3 mm 3 mps 754 mmHg 63%
    15:00 +26°C° 0 mm 4 mps 754 mmHg 63%
    16:00 +26°C° 0 mm 4 mps 754 mmHg 63%
    17:00 +26°C° 0 mm 5 mps 754 mmHg 64%
    18:00 +23°C° 0.5 mm 5 mps 754 mmHg 71%
    19:00 +21°C° 0.5 mm 5 mps 754 mmHg 78%
    20:00 +20°C° 0.5 mm 5 mps 754 mmHg 85%
    21:00 +19°C° 1.2 mm 5 mps 754 mmHg 86%
    22:00 +19°C° 1.2 mm 5 mps 754 mmHg 88%
    23:00 +19°C° 1.2 mm 5 mps 755 mmHg 90%

    Day after tomorrow, 24 July, Wednesday

    Time Temperature Precipitation Wind Pressure Humidity
    00:00 +18°C° 0.1 mm 4 mps 754 mmHg 90%
    01:00 +18°C° 0.1 mm 3 mps 754 mmHg 90%
    02:00 +18°C° 0.1 mm 2 mps 754 mmHg 90%
    03:00 +18°C° 0 mm 2 mps 754 mmHg 89%
    04:00 +18°C° 0 mm 2 mps 754 mmHg 89%
    05:00 +18°C° 0 mm 2 mps 754 mmHg 88%
    06:00 +19°C° 0 mm 3 mps 754 mmHg 80%
    07:00 +20°C° 0 mm 3 mps 754 mmHg 73%
    08:00 +22°C° 0 mm 3 mps 754 mmHg 65%
    09:00 +24°C° 0 mm 3 mps 754 mmHg 59%
    10:00 +25°C° 0 mm 3 mps 754 mmHg 54%
    11:00 +27°C° 0 mm 3 mps 754 mmHg 48%
    12:00 +27°C° 0 mm 2 mps 753 mmHg 45%
    13:00 +28°C° 0 mm 2 mps 753 mmHg 42%
    14:00 +28°C° 0 mm 2 mps 753 mmHg 39%
    15:00 +28°C° 0 mm 2 mps 753 mmHg 40%
    16:00 +28°C° 0 mm 2 mps 753 mmHg 40%
    17:00 +28°C° 0 mm 2 mps 753 mmHg 41%
    18:00 +27°C° 0 mm 2 mps 753 mmHg 45%
    19:00 +25°C° 0 mm 2 mps 753 mmHg 50%
    20:00 +24°C° 0 mm 1 mps 753 mmHg 55%
    21:00 +23°C° 0 mm 2 mps 753 mmHg 60%
    22:00 +21°C° 0 mm 2 mps 753 mmHg 65%
    23:00 +20°C° 0 mm 2 mps 753 mmHg 70%

    25 July, Thursday

    Time Temperature Precipitation Wind Pressure Humidity
    00:00 +20°C° 0.1 mm 2 mps 753 mmHg 73%
    01:00 +20°C° 0.1 mm 1 mps 753 mmHg 76%
    02:00 +20°C° 0.1 mm 1 mps 753 mmHg 79%
    03:00 +20°C° 0.1 mm 1 mps 753 mmHg 79%
    04:00 +20°C° 0.1 mm 1 mps 753 mmHg 80%
    05:00 +19°C° 0.1 mm 2 mps 753 mmHg 81%
    06:00 +20°C° 0.2 mm 2 mps 753 mmHg 75%
    07:00 +23°C° 0.2 mm 2 mps 754 mmHg 69%
    08:00 +24°C° 0.2 mm 2 mps 754 mmHg 63%
    09:00 +26°C° 0.4 mm 2 mps 754 mmHg 57%
    10:00 +27°C° 0.4 mm 2 mps 754 mmHg 51%
    11:00 +28°C° 0.4 mm 1 mps 754 mmHg 45%
    12:00 +28°C° 0.1 mm 2 mps 754 mmHg 45%
    13:00 +28°C° 0.1 mm 2 mps 753 mmHg 45%
    14:00 +28°C° 0.1 mm 2 mps 753 mmHg 45%
    15:00 +27°C° 0.5 mm 2 mps 753 mmHg 50%
    16:00 +26°C° 0.5 mm 2 mps 753 mmHg 54%
    17:00 +26°C° 0.5 mm 2 mps 753 mmHg 59%
    18:00 +25°C° 0.7 mm 2 mps 753 mmHg 63%
    19:00 +23°C° 0.7 mm 2 mps 753 mmHg 68%
    20:00 +21°C° 0.7 mm 2 mps 753 mmHg 72%
    21:00 +21°C° 0.3 mm 2 mps 753 mmHg 74%
    22:00 +20°C° 0.3 mm 2 mps 753 mmHg 75%
    23:00 +20°C° 0.3 mm 2 mps 753 mmHg 77%

    26 July, Friday

    Time Temperature Precipitation Wind Pressure Humidity
    00:00 +19°C° 0 mm 2 mps 753 mmHg 78%
    01:00 +19°C° 0 mm 2 mps 753 mmHg 79%
    02:00 +19°C° 0 mm 3 mps 753 mmHg 81%
    03:00 +19°C° 0 mm 3 mps 753 mmHg 80%
    04:00 +19°C° 0 mm 3 mps 753 mmHg 80%
    05:00 +19°C° 0 mm 3 mps 753 mmHg 79%
    06:00 +21°C° 0 mm 3 mps 753 mmHg 72%
    07:00 +24°C° 0 mm 3 mps 753 mmHg 65%
    08:00 +26°C° 0 mm 3 mps 753 mmHg 58%
    09:00 +27°C° 0 mm 2 mps 753 mmHg 52%
    10:00 +28°C° 0 mm 2 mps 753 mmHg 47%
    11:00 +29°C° 0 mm 2 mps 753 mmHg 41%
    12:00 +29°C° 0 mm 2 mps 753 mmHg 43%
    13:00 +29°C° 0 mm 2 mps 753 mmHg 44%
    14:00 +29°C° 0 mm 2 mps 753 mmHg 45%
    15:00 +28°C° 0.2 mm 2 mps 753 mmHg 49%
    16:00 +27°C° 0.2 mm 3 mps 752 mmHg 53%
    17:00 +26°C° 0.2 mm 3 mps 752 mmHg 57%
    18:00 +25°C° 0.6 mm 3 mps 753 mmHg 63%
    19:00 +24°C° 0.6 mm 2 mps 753 mmHg 69%
    20:00 +23°C° 0.6 mm 2 mps 753 mmHg 75%
    21:00 +21°C° 0.1 mm 3 mps 753 mmHg 79%
    22:00 +20°C° 0.1 mm 3 mps 753 mmHg 83%
    23:00 +20°C° 0.1 mm 3 mps 753 mmHg 87%

    27 July, Saturday

    Time Temperature Precipitation Wind Pressure Humidity
    00:00 +19°C° 0 mm 3 mps 753 mmHg 89%
    01:00 +19°C° 0 mm 3 mps 752 mmHg 90%
    02:00 +19°C° 0 mm 3 mps 752 mmHg 92%
    03:00 +19°C° 0 mm 3 mps 752 mmHg 91%
    04:00 +19°C° 0 mm 3 mps 752 mmHg 90%
    05:00 +19°C° 0 mm 3 mps 752 mmHg 90%
    06:00 +20°C° 0 mm 3 mps 752 mmHg 83%
    07:00 +22°C° 0 mm 3 mps 752 mmHg 75%
    08:00 +25°C° 0 mm 3 mps 752 mmHg 68%
    09:00 +26°C° 0.2 mm 4 mps 752 mmHg 64%
    10:00 +27°C° 0.2 mm 4 mps 752 mmHg 60%
    11:00 +28°C° 0.2 mm 5 mps 751 mmHg 56%
    12:00 +29°C° 1 mm 5 mps 751 mmHg 55%
    13:00 +29°C° 1 mm 6 mps 751 mmHg 54%
    14:00 +29°C° 1 mm 6 mps 751 mmHg 53%
    15:00 +29°C° 0.1 mm 6 mps 750 mmHg 51%
    16:00 +29°C° 0.1 mm 5 mps 750 mmHg 50%
    17:00 +29°C° 0.1 mm 5 mps 750 mmHg 48%
    18:00 +27°C° 0 mm 5 mps 750 mmHg 54%
    19:00 +26°C° 0 mm 5 mps 751 mmHg 61%
    20:00 +23°C° 0 mm 5 mps 751 mmHg 67%
    21:00 +23°C° 0 mm 5 mps 751 mmHg 69%
    22:00 +23°C° 0 mm 5 mps 751 mmHg 71%
    23:00 +22°C° 0 mm 4 mps 751 mmHg 74%
    Show more